SCP
-0 -0 -0 0 0 -0 -0 0 0 0 0 -0 0 0 -0 -0 0 0 -0 -0 -0 -0 -0 -0 -0 -0 -0 -0 -0 -0 -0 -0 -0 -0 -0 -0 0 0 0 0 0 0 0 0 0 0 0 0 0
-0 -0 -0 0 -0 -0 -0 0 -0 0 -0 -0 0 0 0 -0 -0 -0 -0 -0 -0 -0 -0 -0 -0 -0 -0 -0 -0 -0 -0 -0 -0 -0 -0 -0 -0 -0 0 0 0 0 0 0 0 0 0 0 0
-0 -0 0 0 -0 -0 -0 -0 0 -0 0 0 0 0 0 0 -0 0 -0 -0 -0 -0 -0 -0 -0 -0 -0 -0 -0 -0 -0 -0 -0 -0 -0 -0 -0 -0 0 0 0 0 0 0 0 0 0 0 0
0 0 0 0 -0 -0 -0 0 0 0 0 0 0 0 0 0 0 -0 -0 -0 -0 -0 -0 -0 -0 -0 -0 -0 -0 -0 -0 -0 -0 -0 -0 -0 -0 -0 -0 0 0 0 0 0 0 0 0 0 0
0 0 0 0 0 -0 -0 0 0 0 0 0 0 0 0 0 0 -0 -0 -0 0 0 0 -0 -0 -0 -0 -0 -0 -0 -0 -0 -0 -0 -0 -0 -0 -0 -0 -0 0 0 0 0 0 0 0 0 0
0 0 0 0 0 -0 -0 0 0 0 -0 0 0 0 0 -0 0 0 0 0 0 0 0 0 0 0 -0 -0 -0 -0 -0 -0 -0 -0 -0 -0 -0 -0 -0 -0 -0 0 0 0 0 0 0 0 0
0 0 0 0 0 -0 -0 0 0 0 0 0 0 0 2 -0 0 0 0 0 0 0 0 0 0 0 0 0 0 -0 -0 -0 -0 -0 -0 -0 -0 -0 -0 -0 -0 0 0 0 0 0 0 0 0
0 0 0 0 0 -0 0 0 -0 0 0 0 0 0 -0 0 0 0 0 0 0 0 0 0 0 0 0 0 0 0 0 0 0 -0 -0 -0 -0 -0 -0 -0 -0 0 0 0 0 0 0 0 0
0 0 0 0 0 0 -0 0 0 0 0 0 0 0 1 0 0 0 0 0 0 0 0 0 0 0 0 0 0 0 0 0 0 0 0 0 0 -0 -0 0 -0 0 0 -0 -0 -0 -0 -0 -0
0 0 0 0 0 0 -0 0 0 0 0 0 0 0 0 0 0 0 0 0 0 0 0 0 0 0 0 0 0 0 0 0 0 0 0 -0 -0 0 -0 -0 -0 -0 -0 -0 -0 -0 -0 -0 0
-0 0 0 0 0 0 0 -0 0 0 0 0 0 0 0 0 0 0 0 0 0 0 0 0 0 0 0 0 0 0 0 0 0 0 0 -0 -0 0 0 0 0 0 -0 0 -0 -0 0 0 -0
0 0 0 0 0 0 0 0 0 0 0 -0 0 0 0 0 0 -0 0 0 0 0 1 0 0 0 0 0 0 0 0 0 0 0 0 0 0 0 0 0 0 0 0 0 0 -0 -0 0 0
0 0 0 0 0 0 0 0 0 0 0 0 0 0 0 0 0 0 0 0 0 1 1 0 1 1 1 1 0 0 0 0 0 0 0 0 0 0 0 0 0 0 0 0 0 0 0 0 0
-0 0 0 0 0 0 0 0 0 0 0 0 0 0 0 0 0 0 0 0 1 1 1 1 2 2 3 3 1 0 0 1 0 0 0 0 0 0 0 0 0 0 0 0 0 0 -0 -0 0
0 0 0 0 0 0 0 0 0 0 0 0 0 0 0 0 0 0 0 1 3 3 3 4 3 3 3 4 2 2 1 0 1 1 0 1 0 0 0 0 0 0 0 0 0 0 0 0 0
0 0 0 0 0 0 0 0 0 0 0 0 0 0 0 -0 0 1 0 1 3 3 3 3 2 2 3 4 3 2 1 1 1 1 1 0 0 0 0 0 0 0 0 0 0 0 0 0 0
0 0 0 0 0 0 0 0 0 0 0 0 0 0 0 0 0 0 1 2 3 4 3 3 3 2 3 4 2 2 1 1 1 0 0 0 0 0 0 0 0 0 0 0 0 0 0 -0 -0
0 0 0 -0 -0 0 0 0 0 0 0 0 0 0 0 0 0 0 2 2 5 5 4 3 2 3 3 2 2 1 1 2 0 0 0 0 0 0 0 0 0 0 0 0 0 0 -0 -0 -0
-0 0 0 0 0 0 0 0 0 0 0 0 0 0 0 0 0 0 2 5 5 6 6 5 6 8 4 2 2 3 2 1 0 0 0 0 0 0 0 0 0 0 0 0 0 -0 0 0 -0
0 0 0 0 0 0 0 0 0 0 0 0 0 0 0 0 0 0 3 7 6 7 5 4 5 6 3 1 2 3 1 1 0 0 0 0 0 0 0 0 0 0 0 0 0 -0 -0 0 0
0 0 0 0 0 0 0 0 0 0 0 0 0 0 0 0 0 0 6 9 6 5 4 4 3 6 4 2 3 6 2 1 0 0 0 0 0 0 0 0 0 0 0 0 0 -0 -0 0 0
0 0 0 0 0 0 0 0 0 0 0 0 0 0 0 0 0 0 2 4 6 9 7 3 7 10 4 5 3 4 2 0 0 0 0 0 0 0 0 0 0 0 0 0 0 -0 0 0 0
-0 0 0 0 0 0 0 0 0 0 0 0 0 0 0 0 0 0 0 2 5 4 5 4 2 2 3 6 4 3 3 1 1 0 0 0 0 0 0 0 0 0 0 0 0 0 0 0 0
0 0 0 0 0 0 0 0 0 0 0 0 0 0 0 0 0 0 0 5 6 5 5 5 4 5 5 2 2 1 2 1 1 0 0 0 0 0 0 0 0 0 0 0 0 0 0 0 0
0 0 0 0 0 0 0 0 0 0 0 0 0 0 1 0 0 0 0 2 4 6 7 5 6 4 3 0 1 2 3 3 0 1 0 0 0 0 0 0 0 0 0 0 0 0 0 0 0
0 0 0 0 0 0 0 0 0 0 0 0 0 0 0 0 0 0 0 0 0 3 1 5 6 10 8 4 3 3 4 3 0 1 0 0 0 0 0 0 0 0 0 0 0 0 0 0 0
0 0 0 0 0 0 0 0 0 0 0 0 0 0 1 0 0 0 0 0 0 0 2 0 5 6 9 6 3 1 3 3 0 0 0 0 0 0 0 0 0 0 0 0 0 0 0 0 0
0 0 0 0 0 0 0 0 0 0 0 0 0 0 1 0 0 0 0 1 0 0 0 1 0 0 3 3 3 2 3 1 1 1 0 0 0 0 0 0 0 0 0 0 0 0 0 0 0
0 0 0 0 0 0 0 0 1 1 1 1 0 0 0 0 0 1 1 1 1 1 1 1 1 0 -1 3 3 4 2 0 1 2 0 0 0 0 0 0 0 0 0 0 0 0 0 0 0
0 0 0 0 0 0 0 0 0 0 0 0 0 0 0 0 0 0 0 1 1 1 1 2 2 1 4 4 2 2 2 1 1 2 1 0 1 0 0 0 0 0 0 0 0 0 0 0 0
Wind_Speed_500mb
21 20 25 29 14 15 37 30 28 19 13 9 22 18 22 54 15 24 43 45 40 48 57 52 48 46 42 38 33 27 23 22 22 20 19 18 17 16 14 12 10 10 9 9 9 11 12 16 19
18 16 26 24 19 28 21 29 49 25 27 14 10 4 12 42 42 43 43 48 37 51 57 54 49 46 43 38 33 28 23 21 21 20 18 16 13 11 9 7 4 5 8 10 12 12 13 15 17
17 10 23 13 27 32 29 11 17 27 21 11 4 7 7 33 38 37 42 50 42 51 58 55 50 46 43 38 33 30 25 22 21 19 17 14 11 8 4 1 2 6 10 13 16 18 18 17 17
10 15 25 20 39 45 45 12 18 8 17 16 6 15 8 16 25 33 49 52 43 50 55 53 50 46 43 39 35 31 27 23 21 19 16 13 10 6 3 4 6 9 11 12 15 17 18 20 18
23 23 24 36 42 43 42 17 21 12 8 12 15 1 33 26 31 39 53 50 50 51 53 53 48 45 41 39 37 33 29 25 22 19 17 14 9 5 4 6 9 11 13 14 15 17 18 18 17
30 36 28 32 42 45 42 31 11 5 29 12 19 16 16 27 31 35 47 48 48 55 48 57 51 46 43 40 39 35 30 26 23 20 18 13 9 5 5 8 11 12 12 12 14 15 16 15 15
40 27 38 43 46 49 40 48 22 9 23 20 22 7 26 22 26 33 46 48 52 49 44 58 55 49 44 41 38 36 33 29 25 22 18 13 8 6 8 9 9 9 10 12 13 14 14 13 13
46 27 49 44 40 51 36 20 41 16 22 23 13 7 22 45 30 35 46 46 51 40 38 61 57 52 48 44 39 36 33 30 27 22 16 11 7 8 8 7 5 8 12 14 16 14 14 14 13
45 30 34 49 52 48 51 8 38 37 22 6 11 19 42 37 33 37 45 46 50 43 35 47 56 53 49 46 44 39 35 32 28 23 17 9 6 6 2 4 10 13 15 14 18 20 17 14 11
43 31 48 48 43 47 60 34 45 43 19 31 15 23 29 28 31 38 45 48 46 46 39 45 44 50 43 43 46 42 38 33 28 23 17 9 16 8 8 13 20 13 20 17 22 24 21 19 22
51 39 45 45 61 60 60 62 32 29 20 30 27 34 26 28 28 37 42 46 47 46 44 47 46 41 45 39 40 44 39 34 29 20 15 20 16 18 16 8 11 14 16 19 20 25 11 18 13
43 57 51 57 65 63 47 56 38 35 21 44 14 17 25 20 28 36 42 45 47 46 48 51 55 46 52 51 30 32 23 24 16 19 19 22 24 18 8 9 6 14 4 11 9 12 21 12 19
45 42 55 58 55 57 62 48 37 45 49 59 27 12 14 20 27 37 40 42 46 49 51 53 54 51 52 52 35 34 32 29 25 26 28 25 19 22 25 22 16 15 1 8 5 18 13 11 5
49 50 53 52 58 58 42 46 47 50 54 52 36 43 21 38 35 36 42 45 50 51 53 50 54 53 49 44 33 42 32 38 34 28 19 34 20 25 24 22 11 12 7 5 2 13 22 17 9
46 44 42 46 48 43 55 43 47 59 57 59 53 42 36 32 42 42 43 43 41 54 50 45 55 54 53 51 42 42 46 33 32 32 27 28 34 27 20 18 13 7 2 5 7 8 7 7 8
41 35 37 41 47 49 43 46 45 58 59 65 65 60 60 51 37 44 46 47 49 52 57 58 48 56 56 58 55 51 48 34 33 37 39 39 37 30 29 19 15 6 4 5 11 11 9 12 4
30 35 42 44 46 41 47 52 44 59 62 61 63 67 56 64 61 38 43 47 37 53 56 62 58 49 59 61 63 53 43 40 41 39 41 42 35 32 27 22 14 9 5 3 7 5 5 4 9
34 40 43 40 40 44 50 50 48 50 54 55 57 65 71 63 70 53 43 55 57 41 46 55 56 56 62 64 57 47 48 43 44 37 36 36 33 33 29 23 17 11 4 3 7 9 13 7 13
39 40 45 43 38 34 40 35 36 37 59 56 53 52 57 64 67 75 52 66 68 62 53 58 54 61 64 65 62 55 57 52 43 38 39 34 37 38 34 23 20 16 9 4 4 12 13 10 12
38 43 40 40 45 42 39 39 35 33 43 50 53 52 44 37 40 79 55 71 73 71 75 65 57 61 66 65 59 56 55 52 47 46 47 37 43 39 34 25 22 17 13 8 8 12 6 14 2
35 36 38 38 38 43 42 44 40 41 51 57 60 52 46 48 56 69 69 74 68 63 70 71 46 63 61 58 58 48 38 48 44 52 47 46 45 41 37 27 25 18 14 11 11 14 11 4 15
34 36 39 37 33 31 35 32 39 41 45 46 60 61 58 55 58 49 91 88 87 85 87 73 85 60 63 64 56 56 61 67 59 58 47 50 48 42 39 32 24 20 15 8 10 11 16 10 8
42 35 37 38 36 35 42 30 36 36 38 44 46 68 71 62 61 52 57 92 97 101 92 91 82 85 99 86 64 56 58 62 61 57 48 53 53 51 46 39 31 30 19 18 10 13 14 14 7
37 39 39 36 33 32 40 36 36 35 38 41 34 49 68 39 68 65 66 83 97 95 95 99 93 112 114 95 85 64 72 59 59 59 52 53 57 55 51 45 38 32 27 18 13 11 9 9 7
36 28 24 30 28 33 41 41 36 39 42 40 5 27 29 18 13 20 14 70 98 108 99 104 107 112 106 96 89 101 86 70 34 47 55 51 58 59 57 52 44 37 29 22 17 12 12 12 11
47 38 28 38 31 38 41 38 37 40 49 49 15 21 13 7 11 19 23 15 8 65 101 97 101 95 93 88 114 115 109 93 59 64 71 50 57 57 58 57 48 42 36 28 22 17 15 10 9
33 31 37 41 40 34 37 51 44 28 6 19 29 34 25 7 2 5 17 17 24 18 29 57 63 91 99 99 109 125 111 89 88 42 93 84 57 61 61 63 54 47 40 32 25 22 18 14 9
20 26 27 26 38 37 42 40 32 33 20 29 15 20 21 7 12 5 7 20 30 34 30 20 68 115 94 89 110 104 102 97 77 81 86 93 67 64 63 59 59 49 43 35 28 26 22 17 10
31 26 32 28 31 27 30 20 28 41 32 26 40 58 25 17 14 11 8 14 21 36 40 35 20 93 74 79 94 104 100 98 83 79 57 77 75 65 58 49 52 51 46 41 35 33 26 25 19
45 29 32 19 24 30 31 23 18 26 31 56 33 36 61 34 23 16 11 16 19 31 44 44 36 23 44 67 68 34 68 93 90 82 74 79 78 75 67 52 36 49 48 47 40 39 32 30 26
Wind_Direction_500mb
287 297 343 297 260 228 265 183 202 96 100 134 60 344 8 66 53 105 138 149 164 158 164 164 162 161 161 159 155 153 151 147 147 145 141 137 129 124 113 97 83 72 59 50 34 26 16 10 7
279 300 278 276 258 279 286 61 336 111 91 72 360 101 56 102 96 126 136 154 177 164 165 166 166 165 164 163 160 159 159 158 157 154 157 148 146 135 121 107 71 20 3 356 354 356 357 358 356
268 217 278 237 253 260 274 345 78 99 94 82 182 37 74 88 114 141 140 155 180 164 168 168 168 168 167 166 165 164 165 166 163 165 170 164 166 159 153 144 332 334 333 335 334 338 340 344 349
248 254 249 261 267 270 264 124 357 331 104 143 240 149 143 59 115 132 145 156 161 163 171 170 170 171 170 169 167 168 168 171 170 177 177 183 183 196 242 309 328 331 327 327 327 330 334 335 341
242 265 255 260 265 262 280 282 119 299 204 176 185 335 153 131 110 135 150 155 150 152 168 170 174 173 174 171 169 169 172 173 177 180 185 194 198 220 277 318 330 328 325 328 330 329 331 335 344
229 235 257 260 257 259 264 272 287 0 288 117 177 169 208 139 133 146 157 156 157 168 169 170 175 177 177 176 173 172 174 177 180 185 194 202 210 240 288 316 321 320 325 336 339 337 340 346 356
243 245 248 256 268 271 271 17 285 199 274 237 147 207 60 29 135 159 161 157 158 179 181 175 175 178 181 181 179 177 178 180 185 191 200 211 226 266 298 309 317 324 333 341 340 336 338 343 354
237 253 261 260 260 267 278 203 302 279 276 91 148 204 130 190 157 162 164 161 159 162 189 178 178 180 182 182 183 184 184 186 192 197 205 220 253 285 299 307 343 339 332 332 332 338 343 358 17
238 249 253 252 261 272 272 132 284 272 246 211 164 91 110 131 151 164 167 168 164 170 177 176 179 181 184 187 186 187 189 193 197 199 207 216 262 10 52 21 334 326 331 348 0 358 5 28 3
231 242 246 256 264 265 274 270 203 277 216 263 170 121 124 144 165 174 173 174 173 172 172 177 178 182 179 189 191 191 194 198 201 204 205 168 124 266 268 315 322 339 17 11 6 14 12 347 337
242 239 255 257 260 277 278 281 309 265 265 235 224 202 139 159 183 184 184 184 184 185 177 182 181 184 173 189 190 193 197 199 201 204 194 156 162 246 251 334 335 6 12 12 347 0 335 291 287
244 243 245 260 275 284 283 287 281 278 264 279 97 111 144 176 199 204 193 191 187 187 184 184 187 183 177 198 202 186 192 186 194 194 192 149 195 208 197 238 7 20 292 347 337 293 305 15 28
252 250 256 253 263 272 278 287 290 266 270 274 290 205 177 182 210 213 212 204 192 186 186 185 188 185 182 195 197 176 186 183 182 197 212 163 201 190 201 218 204 216 168 277 27 299 334 50 351
257 259 259 257 261 260 275 272 273 267 263 268 271 281 234 189 196 208 223 214 198 184 187 188 190 190 185 187 182 178 182 180 193 211 186 166 205 196 226 221 192 219 202 293 331 348 15 36 42
256 270 272 267 256 262 264 256 252 256 264 266 260 248 272 268 183 192 215 218 193 186 181 186 191 199 190 184 177 183 182 190 193 197 189 193 200 212 199 186 198 211 53 21 352 52 359 337 36
259 264 265 255 259 246 239 258 251 248 249 251 253 247 234 248 243 188 194 209 205 191 195 192 192 198 188 187 185 183 182 178 192 200 196 215 204 203 183 187 194 170 92 5 14 357 98 339 20
249 252 248 257 253 256 239 241 244 252 258 243 242 252 220 234 246 202 186 192 185 184 197 197 194 203 193 193 191 183 179 172 190 200 219 214 204 185 180 190 173 178 138 114 134 348 95 29 134
240 244 244 248 261 256 238 246 235 240 253 255 250 228 243 212 225 235 183 189 188 185 201 203 195 200 200 198 190 174 184 177 196 205 221 196 194 180 167 192 168 153 134 115 85 50 51 45 127
269 275 277 285 284 246 262 267 243 256 266 249 262 245 235 233 217 224 195 190 186 187 193 188 184 197 205 202 186 178 195 184 198 197 205 203 190 187 182 181 171 172 179 106 123 89 31 31 153
256 257 262 275 285 291 287 279 250 248 276 268 244 257 254 228 216 216 198 180 185 191 199 201 207 209 215 211 193 182 199 183 195 196 205 203 195 190 191 183 179 183 160 137 96 118 87 16 99
248 260 273 273 277 273 267 266 272 264 251 265 273 265 256 256 231 212 184 179 179 189 203 212 206 210 222 214 191 189 199 188 193 205 209 202 198 192 191 188 186 188 161 141 120 129 122 2 13
255 261 251 262 264 265 267 258 248 243 243 245 249 252 247 244 256 247 193 195 205 207 211 206 201 200 228 217 198 202 196 191 193 209 209 198 196 197 202 198 200 175 182 194 146 129 135 108 19
267 249 265 274 262 260 252 265 268 264 252 237 230 231 240 236 240 238 221 198 192 199 201 204 213 208 219 213 203 219 201 201 193 210 214 200 198 199 203 203 199 194 201 206 170 152 138 152 168
245 263 263 257 264 254 258 247 260 265 266 270 268 240 223 233 225 230 244 190 188 200 205 205 203 196 202 202 199 223 217 200 201 207 213 204 201 203 206 208 204 198 204 198 198 161 149 143 173
261 258 247 247 242 250 246 250 263 258 263 269 283 45 60 70 336 336 277 193 190 201 193 201 199 199 195 206 212 203 228 214 195 210 216 211 205 205 210 210 207 201 210 206 207 192 166 174 141
235 235 254 255 251 261 258 249 247 246 245 251 122 97 75 37 13 347 342 12 245 213 206 200 198 195 206 201 197 207 203 198 227 241 240 224 219 213 216 217 211 210 212 212 207 200 192 173 152
279 275 270 279 284 288 286 283 287 276 343 189 194 146 122 112 76 345 324 331 316 316 227 250 224 210 201 194 197 201 216 218 206 195 237 230 216 218 216 215 212 213 213 216 212 207 212 194 182
289 289 297 286 275 254 246 271 286 3 313 219 230 139 107 199 206 137 312 332 326 322 305 238 226 215 205 210 211 212 215 202 204 202 218 215 214 208 214 212 211 211 217 219 214 217 223 210 198
303 289 265 272 269 268 274 284 31 5 9 89 11 349 60 4 30 65 40 14 345 335 341 353 215 229 194 212 212 211 213 211 220 215 222 216 206 200 209 207 211 212 219 222 218 219 226 221 208
294 287 291 283 274 295 297 257 92 51 11 25 63 349 351 354 10 12 39 39 16 351 341 339 328 320 232 202 202 230 229 221 217 235 227 210 194 202 205 197 200 216 220 224 224 218 226 229 228
Wind_Speed_850mb
21 20 25 29 14 15 37 30 28 19 13 9 22 18 22 54 15 24 43 45 40 48 57 52 48 46 42 38 33 27 23 22 22 20 19 18 17 16 14 12 10 10 9 9 9 11 12 16 19
18 16 26 24 19 28 21 29 49 25 27 14 10 4 12 42 42 43 43 48 37 51 57 54 49 46 43 38 33 28 23 21 21 20 18 16 13 11 9 7 4 5 8 10 12 12 13 15 17
17 10 23 13 27 32 29 11 17 27 21 11 4 7 7 33 38 37 42 50 42 51 58 55 50 46 43 38 33 30 25 22 21 19 17 14 11 8 4 1 2 6 10 13 16 18 18 17 17
10 15 25 20 39 45 45 12 18 8 17 16 6 15 8 16 25 33 49 52 43 50 55 53 50 46 43 39 35 31 27 23 21 19 16 13 10 6 3 4 6 9 11 12 15 17 18 20 18
23 23 24 36 42 43 42 17 21 12 8 12 15 1 33 26 31 39 53 50 50 51 53 53 48 45 41 39 37 33 29 25 22 19 17 14 9 5 4 6 9 11 13 14 15 17 18 18 17
30 36 28 32 42 45 42 31 11 5 29 12 19 16 16 27 31 35 47 48 48 55 48 57 51 46 43 40 39 35 30 26 23 20 18 13 9 5 5 8 11 12 12 12 14 15 16 15 15
40 27 38 43 46 49 40 48 22 9 23 20 22 7 26 22 26 33 46 48 52 49 44 58 55 49 44 41 38 36 33 29 25 22 18 13 8 6 8 9 9 9 10 12 13 14 14 13 13
46 27 49 44 40 51 36 20 41 16 22 23 13 7 22 45 30 35 46 46 51 40 38 61 57 52 48 44 39 36 33 30 27 22 16 11 7 8 8 7 5 8 12 14 16 14 14 14 13
45 30 34 49 52 48 51 8 38 37 22 6 11 19 42 37 33 37 45 46 50 43 35 47 56 53 49 46 44 39 35 32 28 23 17 9 6 6 2 4 10 13 15 14 18 20 17 14 11
43 31 48 48 43 47 60 34 45 43 19 31 15 23 29 28 31 38 45 48 46 46 39 45 44 50 43 43 46 42 38 33 28 23 17 9 16 8 8 13 20 13 20 17 22 24 21 19 22
51 39 45 45 61 60 60 62 32 29 20 30 27 34 26 28 28 37 42 46 47 46 44 47 46 41 45 39 40 44 39 34 29 20 15 20 16 18 16 8 11 14 16 19 20 25 11 18 13
43 57 51 57 65 63 47 56 38 35 21 44 14 17 25 20 28 36 42 45 47 46 48 51 55 46 52 51 30 32 23 24 16 19 19 22 24 18 8 9 6 14 4 11 9 12 21 12 19
45 42 55 58 55 57 62 48 37 45 49 59 27 12 14 20 27 37 40 42 46 49 51 53 54 51 52 52 35 34 32 29 25 26 28 25 19 22 25 22 16 15 1 8 5 18 13 11 5
49 50 53 52 58 58 42 46 47 50 54 52 36 43 21 38 35 36 42 45 50 51 53 50 54 53 49 44 33 42 32 38 34 28 19 34 20 25 24 22 11 12 7 5 2 13 22 17 9
46 44 42 46 48 43 55 43 47 59 57 59 53 42 36 32 42 42 43 43 41 54 50 45 55 54 53 51 42 42 46 33 32 32 27 28 34 27 20 18 13 7 2 5 7 8 7 7 8
41 35 37 41 47 49 43 46 45 58 59 65 65 60 60 51 37 44 46 47 49 52 57 58 48 56 56 58 55 51 48 34 33 37 39 39 37 30 29 19 15 6 4 5 11 11 9 12 4
30 35 42 44 46 41 47 52 44 59 62 61 63 67 56 64 61 38 43 47 37 53 56 62 58 49 59 61 63 53 43 40 41 39 41 42 35 32 27 22 14 9 5 3 7 5 5 4 9
34 40 43 40 40 44 50 50 48 50 54 55 57 65 71 63 70 53 43 55 57 41 46 55 56 56 62 64 57 47 48 43 44 37 36 36 33 33 29 23 17 11 4 3 7 9 13 7 13
39 40 45 43 38 34 40 35 36 37 59 56 53 52 57 64 67 75 52 66 68 62 53 58 54 61 64 65 62 55 57 52 43 38 39 34 37 38 34 23 20 16 9 4 4 12 13 10 12
38 43 40 40 45 42 39 39 35 33 43 50 53 52 44 37 40 79 55 71 73 71 75 65 57 61 66 65 59 56 55 52 47 46 47 37 43 39 34 25 22 17 13 8 8 12 6 14 2
35 36 38 38 38 43 42 44 40 41 51 57 60 52 46 48 56 69 69 74 68 63 70 71 46 63 61 58 58 48 38 48 44 52 47 46 45 41 37 27 25 18 14 11 11 14 11 4 15
34 36 39 37 33 31 35 32 39 41 45 46 60 61 58 55 58 49 91 88 87 85 87 73 85 60 63 64 56 56 61 67 59 58 47 50 48 42 39 32 24 20 15 8 10 11 16 10 8
42 35 37 38 36 35 42 30 36 36 38 44 46 68 71 62 61 52 57 92 97 101 92 91 82 85 99 86 64 56 58 62 61 57 48 53 53 51 46 39 31 30 19 18 10 13 14 14 7
37 39 39 36 33 32 40 36 36 35 38 41 34 49 68 39 68 65 66 83 97 95 95 99 93 112 114 95 85 64 72 59 59 59 52 53 57 55 51 45 38 32 27 18 13 11 9 9 7
36 28 24 30 28 33 41 41 36 39 42 40 5 27 29 18 13 20 14 70 98 108 99 104 107 112 106 96 89 101 86 70 34 47 55 51 58 59 57 52 44 37 29 22 17 12 12 12 11
47 38 28 38 31 38 41 38 37 40 49 49 15 21 13 7 11 19 23 15 8 65 101 97 101 95 93 88 114 115 109 93 59 64 71 50 57 57 58 57 48 42 36 28 22 17 15 10 9
33 31 37 41 40 34 37 51 44 28 6 19 29 34 25 7 2 5 17 17 24 18 29 57 63 91 99 99 109 125 111 89 88 42 93 84 57 61 61 63 54 47 40 32 25 22 18 14 9
20 26 27 26 38 37 42 40 32 33 20 29 15 20 21 7 12 5 7 20 30 34 30 20 68 115 94 89 110 104 102 97 77 81 86 93 67 64 63 59 59 49 43 35 28 26 22 17 10
31 26 32 28 31 27 30 20 28 41 32 26 40 58 25 17 14 11 8 14 21 36 40 35 20 93 74 79 94 104 100 98 83 79 57 77 75 65 58 49 52 51 46 41 35 33 26 25 19
45 29 32 19 24 30 31 23 18 26 31 56 33 36 61 34 23 16 11 16 19 31 44 44 36 23 44 67 68 34 68 93 90 82 74 79 78 75 67 52 36 49 48 47 40 39 32 30 26
Wind_Direction_850mb
287 297 343 297 260 228 265 183 202 96 100 134 60 344 8 66 53 105 138 149 164 158 164 164 162 161 161 159 155 153 151 147 147 145 141 137 129 124 113 97 83 72 59 50 34 26 16 10 7
279 300 278 276 258 279 286 61 336 111 91 72 360 101 56 102 96 126 136 154 177 164 165 166 166 165 164 163 160 159 159 158 157 154 157 148 146 135 121 107 71 20 3 356 354 356 357 358 356
268 217 278 237 253 260 274 345 78 99 94 82 182 37 74 88 114 141 140 155 180 164 168 168 168 168 167 166 165 164 165 166 163 165 170 164 166 159 153 144 332 334 333 335 334 338 340 344 349
248 254 249 261 267 270 264 124 357 331 104 143 240 149 143 59 115 132 145 156 161 163 171 170 170 171 170 169 167 168 168 171 170 177 177 183 183 196 242 309 328 331 327 327 327 330 334 335 341
242 265 255 260 265 262 280 282 119 299 204 176 185 335 153 131 110 135 150 155 150 152 168 170 174 173 174 171 169 169 172 173 177 180 185 194 198 220 277 318 330 328 325 328 330 329 331 335 344
229 235 257 260 257 259 264 272 287 0 288 117 177 169 208 139 133 146 157 156 157 168 169 170 175 177 177 176 173 172 174 177 180 185 194 202 210 240 288 316 321 320 325 336 339 337 340 346 356
243 245 248 256 268 271 271 17 285 199 274 237 147 207 60 29 135 159 161 157 158 179 181 175 175 178 181 181 179 177 178 180 185 191 200 211 226 266 298 309 317 324 333 341 340 336 338 343 354
237 253 261 260 260 267 278 203 302 279 276 91 148 204 130 190 157 162 164 161 159 162 189 178 178 180 182 182 183 184 184 186 192 197 205 220 253 285 299 307 343 339 332 332 332 338 343 358 17
238 249 253 252 261 272 272 132 284 272 246 211 164 91 110 131 151 164 167 168 164 170 177 176 179 181 184 187 186 187 189 193 197 199 207 216 262 10 52 21 334 326 331 348 0 358 5 28 3
231 242 246 256 264 265 274 270 203 277 216 263 170 121 124 144 165 174 173 174 173 172 172 177 178 182 179 189 191 191 194 198 201 204 205 168 124 266 268 315 322 339 17 11 6 14 12 347 337
242 239 255 257 260 277 278 281 309 265 265 235 224 202 139 159 183 184 184 184 184 185 177 182 181 184 173 189 190 193 197 199 201 204 194 156 162 246 251 334 335 6 12 12 347 0 335 291 287
244 243 245 260 275 284 283 287 281 278 264 279 97 111 144 176 199 204 193 191 187 187 184 184 187 183 177 198 202 186 192 186 194 194 192 149 195 208 197 238 7 20 292 347 337 293 305 15 28
252 250 256 253 263 272 278 287 290 266 270 274 290 205 177 182 210 213 212 204 192 186 186 185 188 185 182 195 197 176 186 183 182 197 212 163 201 190 201 218 204 216 168 277 27 299 334 50 351
257 259 259 257 261 260 275 272 273 267 263 268 271 281 234 189 196 208 223 214 198 184 187 188 190 190 185 187 182 178 182 180 193 211 186 166 205 196 226 221 192 219 202 293 331 348 15 36 42
256 270 272 267 256 262 264 256 252 256 264 266 260 248 272 268 183 192 215 218 193 186 181 186 191 199 190 184 177 183 182 190 193 197 189 193 200 212 199 186 198 211 53 21 352 52 359 337 36
259 264 265 255 259 246 239 258 251 248 249 251 253 247 234 248 243 188 194 209 205 191 195 192 192 198 188 187 185 183 182 178 192 200 196 215 204 203 183 187 194 170 92 5 14 357 98 339 20
249 252 248 257 253 256 239 241 244 252 258 243 242 252 220 234 246 202 186 192 185 184 197 197 194 203 193 193 191 183 179 172 190 200 219 214 204 185 180 190 173 178 138 114 134 348 95 29 134
240 244 244 248 261 256 238 246 235 240 253 255 250 228 243 212 225 235 183 189 188 185 201 203 195 200 200 198 190 174 184 177 196 205 221 196 194 180 167 192 168 153 134 115 85 50 51 45 127
269 275 277 285 284 246 262 267 243 256 266 249 262 245 235 233 217 224 195 190 186 187 193 188 184 197 205 202 186 178 195 184 198 197 205 203 190 187 182 181 171 172 179 106 123 89 31 31 153
256 257 262 275 285 291 287 279 250 248 276 268 244 257 254 228 216 216 198 180 185 191 199 201 207 209 215 211 193 182 199 183 195 196 205 203 195 190 191 183 179 183 160 137 96 118 87 16 99
248 260 273 273 277 273 267 266 272 264 251 265 273 265 256 256 231 212 184 179 179 189 203 212 206 210 222 214 191 189 199 188 193 205 209 202 198 192 191 188 186 188 161 141 120 129 122 2 13
255 261 251 262 264 265 267 258 248 243 243 245 249 252 247 244 256 247 193 195 205 207 211 206 201 200 228 217 198 202 196 191 193 209 209 198 196 197 202 198 200 175 182 194 146 129 135 108 19
267 249 265 274 262 260 252 265 268 264 252 237 230 231 240 236 240 238 221 198 192 199 201 204 213 208 219 213 203 219 201 201 193 210 214 200 198 199 203 203 199 194 201 206 170 152 138 152 168
245 263 263 257 264 254 258 247 260 265 266 270 268 240 223 233 225 230 244 190 188 200 205 205 203 196 202 202 199 223 217 200 201 207 213 204 201 203 206 208 204 198 204 198 198 161 149 143 173
261 258 247 247 242 250 246 250 263 258 263 269 283 45 60 70 336 336 277 193 190 201 193 201 199 199 195 206 212 203 228 214 195 210 216 211 205 205 210 210 207 201 210 206 207 192 166 174 141
235 235 254 255 251 261 258 249 247 246 245 251 122 97 75 37 13 347 342 12 245 213 206 200 198 195 206 201 197 207 203 198 227 241 240 224 219 213 216 217 211 210 212 212 207 200 192 173 152
279 275 270 279 284 288 286 283 287 276 343 189 194 146 122 112 76 345 324 331 316 316 227 250 224 210 201 194 197 201 216 218 206 195 237 230 216 218 216 215 212 213 213 216 212 207 212 194 182
289 289 297 286 275 254 246 271 286 3 313 219 230 139 107 199 206 137 312 332 326 322 305 238 226 215 205 210 211 212 215 202 204 202 218 215 214 208 214 212 211 211 217 219 214 217 223 210 198
303 289 265 272 269 268 274 284 31 5 9 89 11 349 60 4 30 65 40 14 345 335 341 353 215 229 194 212 212 211 213 211 220 215 222 216 206 200 209 207 211 212 219 222 218 219 226 221 208
294 287 291 283 274 295 297 257 92 51 11 25 63 349 351 354 10 12 39 39 16 351 341 339 328 320 232 202 202 230 229 221 217 235 227 210 194 202 205 197 200 216 220 224 224 218 226 229 228